Clinton, OK

3:36 AM CST on January 18, 2017 (GMT -0600)
Clinton Municipal

Weather History for KCLK - December, 2012

Change the Weather History Date:

Wednesday, December 12, 2012

  Actual Average (KCSM) Record (KCSM)
Temperature  
Mean Temperature 38 °F -  
Max Temperature 53 °F 49 °F 69 °F (2005)
Min Temperature 23 °F 30 °F 16 °F (2000)
Degree Days  
Heating Degree Days 27    
Moisture  
Dew Point 12 °F    
Average Humidity 38    
Maximum Humidity 59    
Minimum Humidity 16    
Precipitation  
Precipitation 0.00 in - - ()
Sea Level Pressure  
Sea Level Pressure 30.11 in    
Wind  
Wind Speed 12 mph (SSE)    
Max Wind Speed 28 mph    
Max Gust Speed 33 mph    
Visibility 10 miles    
Events      
Averages and records for this station are not official NWS values.
T = Trace of Precipitation, MM = Missing Value Source: NWS Daily Summary

Daily Weather History Graph

Daily Weather History Graph

Search for Another Location

Airport or City:

Trip Planner

Search our weather history database for the weather conditions in past years. The results will help you decide how hot, cold, wet, or windy it might be!

Date:

Astronomy

Dec. 12, 2012 Rise Set
Actual Time 7:36 AM CST 5:23 PM CST
Civil Twilight 7:07 AM CST 5:51 PM CST
Nautical Twilight 6:35 AM CST 6:23 PM CST
Astronomical Twilight 6:04 AM CST 6:54 PM CST
Moon 6:42 AM CST (12/12) 5:01 PM CST (12/12)
Length of Visible Light 10h 43m
Length of Day
9h 47m
Waning Crescent, 1% of the Moon is Illuminated
Dec 12
Waning Crescent
Dec 13
New
Dec 19
First Quarter
Dec 28
Full
Jan 4
Last Quarter

Hourly Weather History & Observations

Time (CST) Temp. Windchill Dew Point Humidity Pressure Visibility Wind Dir Wind Speed Gust Speed Precip Events Conditions
12:15 AM 30.2 °F 21.9 °F 12.2 °F 47% 30.15 in 10.0 mi SSE 9.2 mph - N/A   Clear
12:35 AM 28.4 °F 19.7 °F 12.2 °F 51% 30.15 in 10.0 mi SSE 9.2 mph - N/A   Clear
12:55 AM 28.4 °F 19.7 °F 12.2 °F 51% 30.15 in 10.0 mi SSE 9.2 mph - N/A   Clear
1:15 AM 28.4 °F 19.1 °F 12.2 °F 51% 30.15 in 10.0 mi SSE 10.4 mph - N/A   Clear
1:35 AM 28.4 °F 19.7 °F 12.2 °F 51% 30.14 in 10.0 mi SSE 9.2 mph - N/A   Clear
1:55 AM 26.6 °F 19.1 °F 12.2 °F 55% 30.14 in 10.0 mi South 6.9 mph - N/A   Clear
2:15 AM 28.4 °F 19.7 °F 12.2 °F 51% 30.14 in 10.0 mi SSE 9.2 mph - N/A   Clear
2:35 AM 26.6 °F 17.5 °F 12.2 °F 55% 30.15 in 10.0 mi SSE 9.2 mph - N/A   Clear
2:55 AM 26.6 °F 18.2 °F 12.2 °F 55% 30.15 in 10.0 mi SSE 8.1 mph - N/A   Clear
3:15 AM 26.6 °F 18.2 °F 12.2 °F 55% 30.15 in 10.0 mi SSE 8.1 mph - N/A   Clear
3:35 AM 24.8 °F 15.3 °F 12.2 °F 59% 30.15 in 10.0 mi SSE 9.2 mph - N/A   Clear
3:55 AM 24.8 °F 15.3 °F 10.4 °F 54% 30.15 in 10.0 mi SSE 9.2 mph - N/A   Clear
4:15 AM 24.8 °F 16.1 °F 10.4 °F 54% 30.14 in 10.0 mi SE 8.1 mph - N/A   Clear
4:35 AM 24.8 °F 16.9 °F 10.4 °F 54% 30.14 in 10.0 mi SE 6.9 mph - N/A   Clear
4:55 AM 24.8 °F 16.9 °F 10.4 °F 54% 30.12 in 10.0 mi SE 6.9 mph - N/A   Clear
5:15 AM 26.6 °F 20.0 °F 10.4 °F 51% 30.14 in 10.0 mi SSE 5.8 mph - N/A   Clear
5:35 AM 23.0 °F 15.8 °F 10.4 °F 59% 30.14 in 10.0 mi South 5.8 mph - N/A   Clear
5:55 AM 23.0 °F 15.8 °F 10.4 °F 59% 30.15 in 10.0 mi SSE 5.8 mph - N/A   Clear
6:15 AM 23.0 °F 13.9 °F 10.4 °F 59% 30.13 in 10.0 mi SE 8.1 mph - N/A   Clear
6:35 AM 26.6 °F 18.2 °F 10.4 °F 51% 30.14 in 10.0 mi SSE 8.1 mph - N/A   Clear
6:55 AM 26.6 °F 17.5 °F 10.4 °F 51% 30.14 in 10.0 mi SSE 9.2 mph - N/A   Clear
7:15 AM 26.6 °F 16.2 °F 10.4 °F 51% 30.15 in 10.0 mi SSE 11.5 mph - N/A   Clear
7:35 AM 26.6 °F 16.8 °F 10.4 °F 51% 30.16 in 10.0 mi SSE 10.4 mph - N/A   Clear
7:55 AM 24.8 °F 16.1 °F 10.4 °F 54% 30.17 in 10.0 mi South 8.1 mph - N/A   Clear
8:15 AM 24.8 °F 15.3 °F 10.4 °F 54% 30.17 in 10.0 mi SSE 9.2 mph - N/A   Clear
8:35 AM 28.4 °F 18.5 °F 10.4 °F 47% 30.16 in 10.0 mi SSE 11.5 mph - N/A   Clear
9:15 AM 32.0 °F 22.1 °F 10.4 °F 41% 30.16 in 10.0 mi SSE 13.8 mph - N/A   Clear
9:35 AM 32.0 °F 22.1 °F 12.2 °F 44% 30.16 in 10.0 mi South 13.8 mph - N/A   Clear
9:55 AM 35.6 °F 25.5 °F 10.4 °F 35% 30.16 in 10.0 mi South 17.3 mph 21.9 mph N/A   Clear
10:15 AM 39.2 °F 30.2 °F 8.6 °F 28% 30.16 in 10.0 mi South 17.3 mph - N/A   Clear
10:35 AM 41.0 °F 31.6 °F 8.6 °F 26% 30.16 in 10.0 mi South 20.7 mph - N/A   Clear
10:55 AM 42.8 °F 34.8 °F 10.4 °F 27% 30.16 in 10.0 mi South 17.3 mph - N/A   Clear
11:15 AM 44.6 °F 36.4 °F 10.4 °F 25% 30.15 in 10.0 mi South 20.7 mph - N/A   Clear
11:35 AM 44.6 °F 36.6 °F 10.4 °F 25% 30.15 in 10.0 mi South 19.6 mph - N/A   Clear
11:55 AM 46.4 °F 39.0 °F 10.4 °F 23% 30.14 in 10.0 mi South 19.6 mph 25.3 mph N/A   Clear
12:15 PM 46.4 °F 39.0 °F 10.4 °F 23% 30.13 in 10.0 mi South 19.6 mph 24.2 mph N/A   Clear
12:35 PM 50.0 °F - 10.4 °F 20% 30.12 in 10.0 mi South 23.0 mph 28.8 mph N/A   Clear
1:15 PM 50.0 °F - 10.4 °F 20% 30.09 in 10.0 mi South 23.0 mph 31.1 mph N/A   Clear
1:35 PM 51.8 °F - 10.4 °F 19% 30.08 in 10.0 mi South 21.9 mph 32.2 mph N/A   Clear
1:55 PM 51.8 °F - 10.4 °F 19% 30.06 in 10.0 mi South 23.0 mph 31.1 mph N/A   Clear
2:15 PM 53.6 °F - 10.4 °F 18% 30.05 in 10.0 mi South 21.9 mph 27.6 mph N/A   Clear
2:35 PM 53.6 °F - 8.6 °F 16% 30.04 in 10.0 mi South 27.6 mph 33.4 mph N/A   Clear
3:15 PM 53.6 °F - 10.4 °F 18% 30.04 in 10.0 mi South 21.9 mph 29.9 mph N/A   Clear
3:35 PM 53.6 °F - 10.4 °F 18% 30.04 in 10.0 mi South 23.0 mph 31.1 mph N/A   Clear
3:55 PM 53.6 °F - 10.4 °F 18% 30.04 in 10.0 mi South 20.7 mph 27.6 mph N/A   Clear
4:15 PM 53.6 °F - 10.4 °F 18% 30.04 in 10.0 mi South 23.0 mph 26.5 mph N/A   Clear
4:35 PM 53.6 °F - 10.4 °F 18% 30.04 in 10.0 mi South 21.9 mph 28.8 mph N/A   Clear
4:55 PM 53.6 °F - 10.4 °F 18% 30.04 in 10.0 mi South 18.4 mph - N/A   Clear
5:15 PM 51.8 °F - 12.2 °F 21% 30.04 in 10.0 mi South 13.8 mph - N/A   Clear
5:35 PM 50.0 °F - 12.2 °F 22% 30.04 in 10.0 mi SSE 13.8 mph - N/A   Clear
5:55 PM 46.4 °F 41.5 °F 12.2 °F 25% 30.05 in 10.0 mi SSE 10.4 mph - N/A   Clear
6:15 PM 44.6 °F 39.2 °F 12.2 °F 27% 30.05 in 10.0 mi SSE 10.4 mph - N/A   Clear
6:35 PM 44.6 °F 38.8 °F 14.0 °F 29% 30.05 in 10.0 mi SSE 11.5 mph - N/A   Clear
6:55 PM 44.6 °F 38.4 °F 14.0 °F 29% 30.05 in 10.0 mi SSE 12.7 mph - N/A   Clear
7:15 PM 44.6 °F 38.1 °F 14.0 °F 29% 30.05 in 10.0 mi SSE 13.8 mph - N/A   Clear
7:55 PM 42.8 °F 35.8 °F 14.0 °F 31% 30.06 in 10.0 mi SSE 13.8 mph - N/A   Clear
8:15 PM 42.8 °F 35.4 °F 14.0 °F 31% 30.06 in 10.0 mi SSE 15.0 mph - N/A   Clear
8:35 PM 42.8 °F 35.1 °F 14.0 °F 31% 30.06 in 10.0 mi SSE 16.1 mph - N/A   Clear
8:55 PM 42.8 °F 35.1 °F 14.0 °F 31% 30.06 in 10.0 mi SSE 16.1 mph - N/A   Clear
9:15 PM 42.8 °F 34.8 °F 14.0 °F 31% 30.07 in 10.0 mi SSE 17.3 mph - N/A   Clear
9:35 PM 41.0 °F 32.8 °F 14.0 °F 33% 30.07 in 10.0 mi SSE 16.1 mph - N/A   Clear
9:55 PM 41.0 °F 32.8 °F 15.8 °F 36% 30.07 in 10.0 mi SSE 16.1 mph - N/A   Clear
10:15 PM 39.2 °F 31.2 °F 15.8 °F 39% 30.07 in 10.0 mi SSE 13.8 mph - N/A   Clear
10:35 PM 39.2 °F 31.6 °F 15.8 °F 39% 30.08 in 10.0 mi SSE 12.7 mph - N/A   Clear
11:15 PM 39.2 °F 31.2 °F 15.8 °F 39% 30.09 in 10.0 mi SSE 13.8 mph - N/A   Clear
11:35 PM 37.4 °F 29.3 °F 17.6 °F 45% 30.09 in 10.0 mi SSE 12.7 mph - N/A   Clear
11:55 PM 37.4 °F 29.3 °F 17.6 °F 45% 30.09 in 10.0 mi SSE 12.7 mph - N/A   Clear